Location: Avon School (historical)
(37.7514°N, 90.2201°W)
Time: 09:37:33
(UTC+00:00)

BlueWalker 3 - Visible Passes

Search period start: 05 October 2024 00:00
Search period end: 15 October 2024 00:00
Orbit: 473 x 485 km, 53.2° (Epoch: 04 October)

Date Brightness Start Highest point End Pass type
(mag) Time Alt. Az. Time Alt. Az. Time Alt. Az.
05 Oct 3.8 09:43:16 28° E 09:43:16 28° E 09:45:33 10° ENE visible
05 Oct 3.0 11:17:30 13° W 11:20:11 27° NNW 11:23:24 10° NNE visible
06 Oct 5.0 09:16:40 14° ENE 09:16:40 14° ENE 09:17:18 10° ENE visible
06 Oct 2.9 10:50:53 25° WNW 10:51:59 30° NNW 10:55:18 10° NNE visible
07 Oct 2.8 10:24:08 33° NNW 10:24:08 33° NNW 10:27:09 10° NNE visible
08 Oct 3.8 09:57:16 23° NNE 09:57:16 23° NNE 09:58:57 10° NNE visible
08 Oct 4.3 11:33:39 10° NNW 11:34:20 10° NNW 11:34:59 10° N visible
09 Oct 4.8 09:30:17 13° NNE 09:30:17 13° NNE 09:30:42 10° NE visible
09 Oct 4.2 11:04:51 10° NW 11:05:57 11° NNW 11:07:02 10° N visible
10 Oct 4.2 10:37:24 12° NNW 10:37:32 12° NNW 10:38:55 10° N visible
11 Oct 4.5 10:10:14 11° N 10:10:14 11° N 10:10:44 10° N visible
